Time,TemperatureF,DewpointF,PressureIn,WindDirection,WindDirectionDegrees,WindSpeedMPH,WindSpeedGustMPH,Humidity,HourlyPrecipIn,Conditions,Clouds,dailyrainin,SoftwareType,DateUTC
2013-03-11 00:00:00,35.6,33.4,30.33,NW,310,0.0,0.0,92,13.60,,,55.84,meteohub,2013-03-11 04:00:00,
2013-03-11 00:02:00,35.6,33.4,30.33,NW,310,0.0,0.0,92,13.60,,,55.84,meteohub,2013-03-11 04:02:00,
2013-03-11 00:08:00,35.6,33.4,30.33,NW,310,0.0,0.0,92,13.88,,,57.32,meteohub,2013-03-11 04:08:00,
2013-03-11 00:13:00,35.6,33.4,30.34,NW,310,0.0,0.0,92,13.40,,,58.04,meteohub,2013-03-11 04:13:00,
2013-03-11 00:18:00,35.6,33.4,30.34,NW,310,0.0,0.0,92,13.52,,,59.36,meteohub,2013-03-11 04:18:00,
2013-03-11 00:23:00,35.6,33.4,30.34,NW,310,0.0,0.0,92,14.00,,,60.92,meteohub,2013-03-11 04:23:00,
2013-03-11 00:28:00,35.6,33.4,30.34,NW,310,0.0,0.0,92,13.48,,,61.64,meteohub,2013-03-11 04:28:00,
2013-03-11 00:33:00,35.4,33.3,30.34,NW,310,0.0,0.0,92,13.72,,,63.08,meteohub,2013-03-11 04:33:00,
2013-03-11 00:38:00,35.4,33.3,30.34,NW,310,0.0,0.0,92,13.36,,,63.80,meteohub,2013-03-11 04:38:00,
2013-03-11 00:43:00,35.4,33.6,30.35,NW,310,0.0,0.0,93,13.60,,,65.24,meteohub,2013-03-11 04:43:00,
2013-03-11 00:48:00,35.4,33.6,30.35,NW,310,0.0,0.0,93,13.84,,,66.68,meteohub,2013-03-11 04:48:00,
2013-03-11 00:53:00,35.4,33.6,30.35,NW,310,0.0,0.0,93,13.36,,,67.40,meteohub,2013-03-11 04:53:00,
2013-03-11 00:58:00,35.4,33.6,30.35,NW,310,0.0,0.0,93,13.72,,,68.84,meteohub,2013-03-11 04:58:00,
2013-03-11 01:03:00,35.4,33.6,30.34,NW,310,0.0,0.0,93,13.88,,,70.20,meteohub,2013-03-11 05:03:00,
2013-03-11 01:08:00,35.4,33.6,30.33,NW,310,0.0,0.0,93,13.36,,,70.92,meteohub,2013-03-11 05:08:00,
2013-03-11 01:13:00,35.4,33.6,30.33,NW,310,0.0,0.0,93,13.72,,,72.36,meteohub,2013-03-11 05:13:00,
2013-03-11 01:18:00,35.4,33.6,30.33,NW,310,0.0,0.0,93,13.24,,,73.08,meteohub,2013-03-11 05:18:00,
2013-03-11 01:23:00,35.4,33.6,30.33,NW,310,0.0,0.0,93,13.48,,,74.52,meteohub,2013-03-11 05:23:00,
2013-03-11 01:29:00,35.4,33.6,30.33,NW,310,0.0,0.0,93,13.72,,,75.96,meteohub,2013-03-11 05:29:00,
2013-03-11 01:34:00,35.6,33.8,30.33,NW,310,0.0,0.0,93,13.36,,,76.68,meteohub,2013-03-11 05:34:00,
2013-03-11 01:39:00,35.6,33.8,30.34,NW,310,0.0,0.0,93,13.72,,,78.24,meteohub,2013-03-11 05:39:00,
2013-03-11 01:44:00,35.8,34.0,30.35,NW,310,0.0,0.0,93,13.96,,,79.56,meteohub,2013-03-11 05:44:00,
2013-03-11 01:49:00,35.8,34.0,30.35,NW,310,0.0,0.0,93,13.48,,,80.40,meteohub,2013-03-11 05:49:00,
2013-03-11 01:54:00,36.0,34.2,30.35,NW,310,0.0,0.0,93,13.84,,,81.84,meteohub,2013-03-11 05:54:00,
2013-03-11 01:59:00,36.0,34.2,30.34,NW,310,0.0,0.0,93,13.36,,,82.56,meteohub,2013-03-11 05:59:00,
2013-03-11 02:04:00,36.0,33.8,30.33,NW,310,0.0,0.0,92,13.56,,,84.00,meteohub,2013-03-11 06:04:00,
2013-03-11 02:09:00,36.0,33.8,30.33,NW,310,0.0,0.0,92,13.96,,,85.48,meteohub,2013-03-11 06:09:00,
2013-03-11 02:14:00,35.8,34.0,30.33,NW,310,0.0,0.0,93,13.52,,,86.24,meteohub,2013-03-11 06:14:00,
2013-03-11 02:19:00,35.8,34.0,30.33,NW,310,0.0,0.0,93,13.76,,,87.68,meteohub,2013-03-11 06:19:00,
2013-03-11 02:25:00,35.8,34.0,30.33,NW,310,0.0,0.0,93,13.68,,,89.88,meteohub,2013-03-11 06:25:00,
2013-03-11 02:30:00,35.8,34.0,30.32,NW,310,0.0,0.0,93,13.80,,,91.20,meteohub,2013-03-11 06:30:00,
2013-03-11 02:35:00,35.8,34.0,30.32,NW,310,0.0,0.0,93,13.44,,,92.04,meteohub,2013-03-11 06:35:00,
2013-03-11 02:40:00,35.8,34.0,30.31,NW,310,0.0,0.0,93,13.68,,,93.48,meteohub,2013-03-11 06:40:00,
2013-03-11 02:45:00,35.8,34.0,30.31,NW,310,0.0,0.0,93,13.32,,,94.20,meteohub,2013-03-11 06:45:00,
2013-03-11 02:50:00,35.8,34.0,30.30,NW,310,0.0,0.0,93,13.56,,,95.64,meteohub,2013-03-11 06:50:00,
2013-03-11 02:55:00,35.8,34.0,30.30,NW,310,0.0,0.0,93,13.80,,,97.08,meteohub,2013-03-11 06:55:00,
2013-03-11 03:00:00,35.8,34.0,30.31,NW,310,0.0,0.0,93,13.28,,,97.68,meteohub,2013-03-11 07:00:00,
2013-03-11 03:05:00,35.8,34.0,30.31,NW,310,0.0,0.0,93,13.52,,,99.16,meteohub,2013-03-11 07:05:00,
2013-03-11 03:10:00,35.8,34.0,30.30,NW,310,0.0,0.0,93,13.92,,,99.99,meteohub,2013-03-11 07:10:00,
2013-03-11 03:15:00,35.8,34.0,30.30,NW,310,0.0,0.0,93,13.44,,,99.99,meteohub,2013-03-11 07:15:00,
2013-03-11 03:20:00,35.8,34.0,30.30,NW,310,0.0,0.0,93,14.24,,,99.99,meteohub,2013-03-11 07:20:00,
2013-03-11 03:26:00,36.0,34.2,30.30,NW,310,0.0,0.0,93,13.88,,,99.99,meteohub,2013-03-11 07:26:00,
2013-03-11 03:31:00,36.0,34.2,30.30,NW,310,0.0,0.0,93,13.52,,,99.99,meteohub,2013-03-11 07:31:00,
2013-03-11 03:36:00,36.0,34.2,30.30,NW,310,0.0,0.0,93,13.76,,,99.99,meteohub,2013-03-11 07:36:00,
2013-03-11 03:41:00,36.0,34.2,30.30,NW,310,0.0,0.0,93,13.28,,,99.99,meteohub,2013-03-11 07:41:00,
2013-03-11 03:46:00,36.0,34.2,30.30,NW,310,0.0,0.0,93,13.68,,,99.99,meteohub,2013-03-11 07:46:00,
2013-03-11 03:51:00,36.1,34.3,30.30,NW,310,0.0,0.0,93,13.80,,,99.99,meteohub,2013-03-11 07:51:00,
2013-03-11 03:57:00,36.0,34.2,30.30,NW,310,0.0,0.0,93,13.32,,,99.99,meteohub,2013-03-11 07:57:00,
2013-03-11 04:02:00,36.0,34.2,30.30,NW,310,0.0,0.0,93,13.64,,,99.99,meteohub,2013-03-11 08:02:00,
2013-03-11 04:07:00,36.0,34.3,30.29,NW,310,0.0,0.0,94,13.28,,,99.99,meteohub,2013-03-11 08:07:00,
2013-03-11 04:12:00,36.0,34.3,30.29,NW,310,0.0,0.0,94,13.52,,,99.99,meteohub,2013-03-11 08:12:00,
2013-03-11 04:17:00,36.0,34.3,30.29,NW,310,0.0,0.0,94,13.88,,,99.99,meteohub,2013-03-11 08:17:00,
2013-03-11 04:22:00,36.0,34.3,30.29,NW,310,0.0,0.0,94,13.40,,,99.99,meteohub,2013-03-11 08:22:00,
2013-03-11 04:27:00,36.0,34.3,30.29,NW,310,0.0,0.0,94,13.52,,,99.99,meteohub,2013-03-11 08:27:00,
2013-03-11 04:32:00,36.0,34.3,30.29,NW,310,0.0,0.0,94,13.88,,,99.99,meteohub,2013-03-11 08:32:00,
2013-03-11 04:37:00,36.0,34.3,30.29,NW,310,0.0,0.0,94,13.52,,,99.99,meteohub,2013-03-11 08:37:00,
2013-03-11 04:42:00,36.0,34.2,30.29,NW,310,0.0,0.0,93,13.72,,,99.99,meteohub,2013-03-11 08:42:00,
2013-03-11 04:47:00,36.0,34.2,30.29,NW,310,0.0,0.0,93,13.24,,,99.99,meteohub,2013-03-11 08:47:00,
2013-03-11 04:52:00,36.0,34.3,30.29,NW,310,0.0,0.0,94,13.60,,,99.99,meteohub,2013-03-11 08:52:00,
2013-03-11 04:57:00,36.0,34.3,30.29,NW,310,0.0,0.0,94,13.88,,,99.99,meteohub,2013-03-11 08:57:00,
2013-03-11 05:02:00,36.0,34.3,30.29,NW,310,0.0,0.0,94,13.40,,,99.99,meteohub,2013-03-11 09:02:00,
2013-03-11 05:07:00,36.0,34.3,30.29,NW,310,0.0,0.0,94,13.76,,,99.99,meteohub,2013-03-11 09:07:00,
2013-03-11 05:12:00,36.0,34.3,30.29,NW,310,0.0,0.0,94,13.28,,,99.99,meteohub,2013-03-11 09:12:00,
2013-03-11 05:17:00,36.0,34.3,30.30,NW,310,0.0,0.0,94,13.52,,,99.99,meteohub,2013-03-11 09:17:00,
2013-03-11 05:22:00,36.0,34.3,30.29,NW,310,0.0,0.0,94,13.88,,,99.99,meteohub,2013-03-11 09:22:00,
2013-03-11 05:27:00,36.0,34.3,30.29,NW,310,0.0,0.0,94,13.40,,,99.99,meteohub,2013-03-11 09:27:00,
2013-03-11 05:33:00,36.0,34.3,30.30,NW,310,0.0,0.0,94,13.64,,,99.99,meteohub,2013-03-11 09:33:00,
2013-03-11 05:38:00,36.0,34.3,30.30,NW,310,0.0,0.0,94,13.76,,,99.99,meteohub,2013-03-11 09:38:00,
2013-03-11 05:43:00,36.0,34.3,30.29,NW,310,0.0,0.0,94,13.52,,,99.99,meteohub,2013-03-11 09:43:00,
2013-03-11 05:48:00,36.0,34.3,30.30,NW,310,0.0,0.0,94,13.64,,,99.99,meteohub,2013-03-11 09:48:00,
2013-03-11 05:53:00,36.0,34.3,30.30,NW,310,0.0,0.0,94,13.12,,,99.99,meteohub,2013-03-11 09:53:00,
2013-03-11 05:58:00,36.0,34.3,30.29,NW,310,0.0,0.0,94,13.48,,,99.99,meteohub,2013-03-11 09:58:00,
2013-03-11 06:03:00,35.8,34.2,30.29,NW,310,0.0,0.0,94,13.68,,,99.99,meteohub,2013-03-11 10:03:00,
2013-03-11 06:08:00,35.8,34.2,30.30,NW,310,0.0,0.0,94,13.32,,,99.99,meteohub,2013-03-11 10:08:00,
2013-03-11 06:13:00,35.8,34.2,30.29,NW,310,0.0,0.0,94,13.68,,,99.99,meteohub,2013-03-11 10:13:00,
2013-03-11 06:18:00,35.8,34.2,30.29,NW,310,0.0,0.0,94,13.80,,,99.99,meteohub,2013-03-11 10:18:00,
2013-03-11 06:23:00,35.8,34.2,30.29,NW,310,0.0,0.0,94,13.32,,,99.99,meteohub,2013-03-11 10:23:00,
2013-03-11 06:29:00,36.0,34.3,30.28,NW,310,0.0,0.0,94,13.56,,,99.99,meteohub,2013-03-11 10:29:00,
2013-03-11 06:34:00,36.0,34.3,30.28,NW,310,0.0,0.0,94,13.24,,,99.99,meteohub,2013-03-11 10:34:00,
2013-03-11 06:39:00,36.0,34.3,30.29,NW,310,0.0,0.0,94,13.48,,,99.99,meteohub,2013-03-11 10:39:00,
2013-03-11 06:44:00,36.0,34.7,30.28,NW,310,0.0,0.0,95,13.76,,,99.99,meteohub,2013-03-11 10:44:00,
2013-03-11 06:49:00,36.0,34.7,30.28,NW,310,0.0,0.0,95,13.28,,,99.99,meteohub,2013-03-11 10:49:00,
2013-03-11 06:54:00,36.0,34.7,30.28,NW,310,0.0,0.0,95,13.64,,,99.99,meteohub,2013-03-11 10:54:00,
2013-03-11 06:59:00,36.1,34.9,30.28,NW,310,0.0,0.0,95,13.88,,,99.99,meteohub,2013-03-11 10:59:00,
2013-03-11 07:04:00,36.1,34.9,30.28,NW,310,0.0,0.0,95,13.52,,,99.99,meteohub,2013-03-11 11:04:00,
2013-03-11 07:09:00,36.1,34.9,30.28,NW,310,0.0,0.0,95,13.76,,,99.99,meteohub,2013-03-11 11:09:00,
2013-03-11 07:14:00,36.1,34.9,30.28,NW,310,0.0,0.0,95,13.40,,,99.99,meteohub,2013-03-11 11:14:00,
2013-03-11 07:19:00,36.1,34.9,30.28,NW,310,0.0,0.0,95,13.64,,,99.99,meteohub,2013-03-11 11:19:00,
2013-03-11 07:24:00,36.1,34.9,30.28,NW,310,0.0,0.0,95,13.88,,,99.99,meteohub,2013-03-11 11:24:00,
2013-03-11 07:29:00,36.1,34.9,30.28,NW,310,0.0,0.0,95,13.28,,,99.99,meteohub,2013-03-11 11:29:00,
2013-03-11 07:34:00,36.3,35.1,30.28,NW,310,0.0,0.0,95,13.72,,,99.99,meteohub,2013-03-11 11:34:00,
2013-03-11 07:39:00,36.3,35.1,30.28,NW,310,0.0,0.0,95,13.96,,,99.99,meteohub,2013-03-11 11:39:00,
2013-03-11 07:45:00,36.3,35.1,30.28,NW,310,0.0,0.0,95,13.56,,,99.99,meteohub,2013-03-11 11:45:00,
2013-03-11 07:50:00,36.5,35.2,30.28,NW,310,0.0,0.0,95,13.32,,,99.99,meteohub,2013-03-11 11:50:00,
2013-03-11 07:55:00,36.5,35.2,30.28,NW,310,0.0,0.0,95,13.68,,,99.99,meteohub,2013-03-11 11:55:00,
2013-03-11 08:00:00,36.7,35.4,30.28,NW,310,0.0,0.0,95,13.92,,,99.99,meteohub,2013-03-11 12:00:00,
2013-03-11 08:05:00,36.9,35.6,30.28,NW,310,0.0,0.0,95,13.32,,,99.99,meteohub,2013-03-11 12:05:00,
2013-03-11 08:10:00,36.9,35.6,30.29,NW,310,0.0,0.0,95,13.56,,,99.99,meteohub,2013-03-11 12:10:00,
2013-03-11 08:15:00,37.0,35.8,30.28,NW,310,0.0,0.0,95,13.12,,,99.99,meteohub,2013-03-11 12:15:00,
2013-03-11 08:20:00,37.2,36.0,30.28,NW,310,0.0,0.0,95,13.60,,,99.99,meteohub,2013-03-11 12:20:00,
2013-03-11 08:25:00,37.4,35.8,30.28,NW,310,0.0,0.0,94,13.84,,,99.99,meteohub,2013-03-11 12:25:00,
2013-03-11 08:31:00,37.6,36.0,30.28,NW,310,0.0,0.0,94,13.40,,,99.99,meteohub,2013-03-11 12:31:00,
2013-03-11 08:36:00,37.8,36.1,30.28,NW,310,0.0,0.0,94,13.64,,,99.99,meteohub,2013-03-11 12:36:00,
2013-03-11 08:41:00,37.9,36.3,30.27,NW,310,0.0,0.0,94,14.00,,,99.99,meteohub,2013-03-11 12:41:00,
2013-03-11 08:46:00,38.3,36.5,30.27,NW,310,0.0,0.0,93,13.52,,,99.99,meteohub,2013-03-11 12:46:00,
2013-03-11 08:51:00,38.7,36.9,30.28,NW,310,0.0,0.0,93,13.76,,,99.99,meteohub,2013-03-11 12:51:00,
2013-03-11 08:56:00,38.8,36.7,30.28,NW,310,0.0,0.0,92,13.28,,,99.99,meteohub,2013-03-11 12:56:00,
2013-03-11 09:01:00,38.8,36.7,30.28,NW,310,0.0,0.0,92,13.52,,,99.99,meteohub,2013-03-11 13:01:00,
2013-03-11 09:07:00,39.0,36.9,30.28,NW,310,0.0,0.0,92,13.88,,,99.99,meteohub,2013-03-11 13:07:00,
2013-03-11 09:12:00,39.2,37.0,30.29,NW,310,0.0,0.0,92,13.36,,,99.99,meteohub,2013-03-11 13:12:00,
2013-03-11 09:17:00,39.4,37.2,30.28,NW,310,0.0,0.0,92,13.60,,,99.99,meteohub,2013-03-11 13:17:00,
2013-03-11 09:22:00,39.6,37.2,30.28,NW,310,0.0,0.0,91,13.92,,,99.99,meteohub,2013-03-11 13:22:00,
2013-03-11 09:28:00,39.6,37.2,30.28,NW,310,0.0,0.0,91,13.56,,,99.99,meteohub,2013-03-11 13:28:00,
2013-03-11 09:33:00,39.7,37.4,30.28,NW,310,0.0,0.0,91,13.76,,,99.99,meteohub,2013-03-11 13:33:00,
2013-03-11 09:38:00,39.9,37.6,30.28,NW,310,0.0,0.0,91,13.28,,,99.99,meteohub,2013-03-11 13:38:00,
2013-03-11 09:43:00,39.9,37.6,30.29,NW,310,0.0,0.0,91,13.52,,,99.99,meteohub,2013-03-11 13:43:00,
2013-03-11 09:48:00,40.1,37.8,30.29,NW,310,0.0,0.0,91,13.80,,,99.99,meteohub,2013-03-11 13:48:00,
2013-03-11 09:53:00,40.3,37.9,30.29,NW,310,0.0,0.0,91,13.44,,,99.99,meteohub,2013-03-11 13:53:00,
2013-03-11 09:59:00,40.5,37.8,30.29,NW,310,0.0,0.0,90,13.56,,,99.99,meteohub,2013-03-11 13:59:00,
2013-03-11 10:04:00,40.6,37.9,30.29,NW,310,0.0,0.0,90,13.92,,,99.99,meteohub,2013-03-11 14:04:00,
2013-03-11 10:09:00,40.6,37.9,30.29,NW,310,0.0,0.0,90,13.36,,,99.99,meteohub,2013-03-11 14:09:00,
2013-03-11 10:14:00,40.8,38.1,30.29,NW,310,0.0,0.0,90,13.84,,,99.99,meteohub,2013-03-11 14:14:00,
2013-03-11 10:19:00,41.2,38.5,30.30,NW,310,0.0,0.0,90,13.36,,,99.99,meteohub,2013-03-11 14:19:00,
2013-03-11 10:24:00,41.2,38.5,30.29,NW,310,0.0,0.0,90,13.64,,,99.99,meteohub,2013-03-11 14:24:00,
2013-03-11 10:29:00,41.2,38.5,30.29,NW,310,0.0,0.0,90,13.88,,,99.99,meteohub,2013-03-11 14:29:00,
2013-03-11 10:34:00,41.2,38.5,30.30,NW,310,0.0,0.0,90,13.40,,,99.99,meteohub,2013-03-11 14:34:00,
2013-03-11 10:40:00,41.5,39.2,30.29,NW,310,0.0,0.0,91,13.76,,,99.99,meteohub,2013-03-11 14:40:00,
2013-03-11 10:45:00,42.3,39.6,30.30,NW,310,0.0,0.0,90,14.00,,,99.99,meteohub,2013-03-11 14:45:00,
2013-03-11 10:50:00,42.8,39.7,30.30,NW,310,0.0,0.0,89,13.48,,,99.99,meteohub,2013-03-11 14:50:00,
2013-03-11 10:55:00,43.2,39.9,30.29,NW,310,0.0,0.0,88,13.36,,,99.99,meteohub,2013-03-11 14:55:00,
2013-03-11 11:00:00,43.5,39.9,30.29,NW,310,0.0,0.0,87,13.60,,,99.99,meteohub,2013-03-11 15:00:00,
2013-03-11 11:05:00,44.2,40.6,30.29,NW,310,0.0,0.0,87,13.80,,,99.99,meteohub,2013-03-11 15:05:00,
2013-03-11 11:10:00,44.6,40.6,30.29,NW,310,0.0,0.0,86,13.32,,,99.99,meteohub,2013-03-11 15:10:00,
2013-03-11 11:15:00,44.8,40.5,30.29,NW,310,0.0,0.0,85,13.68,,,99.99,meteohub,2013-03-11 15:15:00,
2013-03-11 11:20:00,45.0,40.6,30.29,NW,310,0.0,0.0,85,13.12,,,99.99,meteohub,2013-03-11 15:20:00,
2013-03-11 11:25:00,45.3,41.4,30.29,NW,310,0.0,0.0,86,13.60,,,99.99,meteohub,2013-03-11 15:25:00,
2013-03-11 11:30:00,45.3,40.8,30.29,NW,310,0.0,0.0,84,13.84,,,99.99,meteohub,2013-03-11 15:30:00,
2013-03-11 11:35:00,45.1,40.6,30.29,NW,310,0.0,0.0,84,13.36,,,99.99,meteohub,2013-03-11 15:35:00,
2013-03-11 11:40:00,45.3,40.8,30.29,NW,310,0.0,0.0,84,13.60,,,99.99,meteohub,2013-03-11 15:40:00,
2013-03-11 11:46:00,45.7,41.2,30.29,NW,310,0.0,0.0,84,13.96,,,99.99,meteohub,2013-03-11 15:46:00,
2013-03-11 11:51:00,46.0,41.7,30.29,NW,310,0.0,0.0,85,13.48,,,99.99,meteohub,2013-03-11 15:51:00,
2013-03-11 11:56:00,46.6,41.7,30.28,NW,310,0.0,0.0,83,13.72,,,99.99,meteohub,2013-03-11 15:56:00,
2013-03-11 12:01:00,47.1,42.6,30.28,NW,310,0.0,0.0,84,13.88,,,99.99,meteohub,2013-03-11 16:01:00,
2013-03-11 12:06:00,47.5,42.3,30.27,NW,310,0.0,0.0,82,13.52,,,99.99,meteohub,2013-03-11 16:06:00,
2013-03-11 12:11:00,47.5,42.3,30.27,NW,310,0.0,0.0,82,13.76,,,99.99,meteohub,2013-03-11 16:11:00,
2013-03-11 12:16:00,47.5,41.9,30.27,NW,310,0.0,0.0,81,13.28,,,99.99,meteohub,2013-03-11 16:16:00,
2013-03-11 12:21:00,46.9,42.1,30.26,NW,310,0.0,0.0,83,13.52,,,99.99,meteohub,2013-03-11 16:21:00,
2013-03-11 12:27:00,46.8,41.9,30.27,NW,310,0.0,0.0,83,13.88,,,99.99,meteohub,2013-03-11 16:27:00,
2013-03-11 12:32:00,46.0,41.2,30.27,NW,310,0.0,0.0,83,12.68,,,99.99,meteohub,2013-03-11 16:32:00,
2013-03-11 12:37:00,46.0,41.7,30.26,NW,310,0.0,0.0,85,13.76,,,99.99,meteohub,2013-03-11 16:37:00,
2013-03-11 12:42:00,46.2,41.7,30.26,NW,310,0.0,0.0,84,13.28,,,99.99,meteohub,2013-03-11 16:42:00,
2013-03-11 12:47:00,46.2,41.7,30.25,NW,310,0.0,0.0,84,13.56,,,99.99,meteohub,2013-03-11 16:47:00,
2013-03-11 12:52:00,46.6,42.1,30.25,NW,310,0.0,0.0,84,13.80,,,99.99,meteohub,2013-03-11 16:52:00,
2013-03-11 12:57:00,46.8,42.4,30.25,NW,310,0.0,0.0,85,13.32,,,99.99,meteohub,2013-03-11 16:57:00,
2013-03-11 13:02:00,47.5,42.6,30.25,NW,310,0.0,0.0,83,13.64,,,99.99,meteohub,2013-03-11 17:02:00,
2013-03-11 13:08:00,48.0,43.2,30.25,NW,310,0.0,0.0,83,13.76,,,99.99,meteohub,2013-03-11 17:08:00,
2013-03-11 13:13:00,48.2,42.6,30.25,NW,310,0.0,0.0,81,13.40,,,99.99,meteohub,2013-03-11 17:13:00,
2013-03-11 13:18:00,48.4,43.5,30.25,NW,310,0.0,0.0,83,13.60,,,99.99,meteohub,2013-03-11 17:18:00,
2013-03-11 13:23:00,48.7,43.5,30.25,NW,310,0.0,0.0,82,13.24,,,99.99,meteohub,2013-03-11 17:23:00,
2013-03-11 13:28:00,48.7,43.5,30.25,NW,310,0.0,0.0,82,13.60,,,99.99,meteohub,2013-03-11 17:28:00,
2013-03-11 13:33:00,48.7,43.5,30.25,NW,310,0.0,0.0,82,13.88,,,99.99,meteohub,2013-03-11 17:33:00,
2013-03-11 13:38:00,48.7,43.2,30.25,NW,310,0.0,0.0,81,13.28,,,99.99,meteohub,2013-03-11 17:38:00,
2013-03-11 13:43:00,48.6,43.0,30.25,NW,310,0.0,0.0,81,13.60,,,99.99,meteohub,2013-03-11 17:43:00,
2013-03-11 13:48:00,48.6,43.7,30.25,NW,310,0.0,0.0,83,13.84,,,99.99,meteohub,2013-03-11 17:48:00,
2013-03-11 13:53:00,48.7,43.9,30.24,NW,310,0.0,0.0,83,13.36,,,99.99,meteohub,2013-03-11 17:53:00,
2013-03-11 13:59:00,49.3,43.7,30.23,NW,310,0.0,0.0,81,13.60,,,99.99,meteohub,2013-03-11 17:59:00,
2013-03-11 14:04:00,49.3,44.1,30.23,NW,310,0.0,0.0,82,13.24,,,99.99,meteohub,2013-03-11 18:04:00,
2013-03-11 14:09:00,49.3,43.3,30.23,NW,310,0.0,0.0,80,13.48,,,99.99,meteohub,2013-03-11 18:09:00,
2013-03-11 14:14:00,48.9,43.3,30.24,NW,310,0.0,0.0,81,13.72,,,99.99,meteohub,2013-03-11 18:14:00,
2013-03-11 14:19:00,49.3,44.1,30.24,NW,310,0.0,0.0,82,13.24,,,99.99,meteohub,2013-03-11 18:19:00,
2013-03-11 14:24:00,49.5,43.9,30.24,NW,310,0.0,0.0,81,13.60,,,99.99,meteohub,2013-03-11 18:24:00,
2013-03-11 14:29:00,49.5,44.2,30.23,NW,310,0.0,0.0,82,13.88,,,99.99,meteohub,2013-03-11 18:29:00,
2013-03-11 14:34:00,50.0,44.4,30.23,NW,310,0.0,0.0,81,12.64,,,99.99,meteohub,2013-03-11 18:34:00,
2013-03-11 14:39:00,50.2,44.2,30.22,NW,310,0.0,0.0,80,13.84,,,99.99,meteohub,2013-03-11 18:39:00,
2013-03-11 14:44:00,50.2,44.2,30.22,NW,310,0.0,0.0,80,13.36,,,99.99,meteohub,2013-03-11 18:44:00,
2013-03-11 14:50:00,50.4,44.1,30.22,NW,310,0.0,0.0,79,13.60,,,99.99,meteohub,2013-03-11 18:50:00,
2013-03-11 14:55:00,50.4,44.4,30.22,NW,310,0.0,0.0,80,13.72,,,99.99,meteohub,2013-03-11 18:55:00,
2013-03-11 15:00:00,50.4,44.1,30.22,NW,310,0.0,0.0,79,13.72,,,99.99,meteohub,2013-03-11 19:00:00,
2013-03-11 15:05:00,50.7,44.8,30.22,NW,310,0.0,0.0,80,13.96,,,99.99,meteohub,2013-03-11 19:05:00,
2013-03-11 15:10:00,50.7,44.4,30.22,NW,310,0.0,0.0,79,12.76,,,99.99,meteohub,2013-03-11 19:10:00,
2013-03-11 15:15:00,50.7,44.4,30.22,NW,310,0.0,0.0,79,13.72,,,99.99,meteohub,2013-03-11 19:15:00,
2013-03-11 15:20:00,50.9,44.2,30.22,NW,310,0.0,0.0,78,13.20,,,99.99,meteohub,2013-03-11 19:20:00,
2013-03-11 15:25:00,50.7,44.1,30.22,NW,310,0.0,0.0,78,13.56,,,99.99,meteohub,2013-03-11 19:25:00,
2013-03-11 15:30:00,50.5,43.9,30.21,NW,310,0.0,0.0,78,13.92,,,99.99,meteohub,2013-03-11 19:30:00,
2013-03-11 15:35:00,50.5,43.9,30.21,NW,310,0.0,0.0,78,13.44,,,99.99,meteohub,2013-03-11 19:35:00,
2013-03-11 15:41:00,50.5,43.9,30.22,NW,310,0.0,0.0,78,13.68,,,99.99,meteohub,2013-03-11 19:41:00,
2013-03-11 15:46:00,50.5,43.5,30.21,NW,310,0.0,0.0,77,13.24,,,99.99,meteohub,2013-03-11 19:46:00,
2013-03-11 15:51:00,50.5,44.2,30.22,NW,310,0.0,0.0,79,12.88,,,99.99,meteohub,2013-03-11 19:51:00,
2013-03-11 15:56:00,50.9,44.2,30.21,NW,310,0.0,0.0,78,13.72,,,99.99,meteohub,2013-03-11 19:56:00,
2013-03-11 16:01:00,50.9,43.9,30.21,NW,310,0.0,0.0,77,13.24,,,99.99,meteohub,2013-03-11 20:01:00,
2013-03-11 16:07:00,50.9,43.5,30.21,NW,310,0.0,0.0,76,13.52,,,99.99,meteohub,2013-03-11 20:07:00,
2013-03-11 16:12:00,50.4,43.2,30.21,NW,310,0.0,0.0,76,13.88,,,99.99,meteohub,2013-03-11 20:12:00,
2013-03-11 16:17:00,50.2,43.5,30.21,NW,310,0.0,0.0,78,13.40,,,99.99,meteohub,2013-03-11 20:17:00,
2013-03-11 16:22:00,50.2,43.5,30.21,NW,310,0.0,0.0,78,13.64,,,99.99,meteohub,2013-03-11 20:22:00,
2013-03-11 16:27:00,50.2,43.5,30.20,NW,310,0.0,0.0,78,13.16,,,99.99,meteohub,2013-03-11 20:27:00,
2013-03-11 16:32:00,49.8,43.5,30.20,NW,310,0.0,0.0,79,13.52,,,99.99,meteohub,2013-03-11 20:32:00,
2013-03-11 16:37:00,49.5,43.5,30.20,NW,310,0.0,0.0,80,13.88,,,99.99,meteohub,2013-03-11 20:37:00,
2013-03-11 16:42:00,49.3,43.3,30.20,NW,310,0.0,0.0,80,13.28,,,99.99,meteohub,2013-03-11 20:42:00,
2013-03-11 16:47:00,48.9,43.3,30.20,NW,310,0.0,0.0,81,13.60,,,99.99,meteohub,2013-03-11 20:47:00,
2013-03-11 16:52:00,48.9,43.7,30.19,NW,310,0.0,0.0,82,13.84,,,99.99,meteohub,2013-03-11 20:52:00,
2013-03-11 16:57:00,48.6,43.7,30.19,NW,310,0.0,0.0,83,13.48,,,99.99,meteohub,2013-03-11 20:57:00,
2013-03-11 17:02:00,48.6,43.7,30.19,NW,310,0.0,0.0,83,13.80,,,99.99,meteohub,2013-03-11 21:02:00,
2013-03-11 17:07:00,48.4,43.5,30.19,NW,310,0.0,0.0,83,13.32,,,99.99,meteohub,2013-03-11 21:07:00,
2013-03-11 17:12:00,48.4,43.5,30.19,NW,310,0.0,0.0,83,12.88,,,99.99,meteohub,2013-03-11 21:12:00,
2013-03-11 17:17:00,48.0,43.3,30.19,NW,310,0.0,0.0,84,13.72,,,99.99,meteohub,2013-03-11 21:17:00,
2013-03-11 17:22:00,48.0,43.3,30.19,NW,310,0.0,0.0,84,13.36,,,99.99,meteohub,2013-03-11 21:22:00,
2013-03-11 17:27:00,47.8,43.5,30.19,NW,310,0.0,0.0,85,13.60,,,99.99,meteohub,2013-03-11 21:27:00,
2013-03-11 17:32:00,47.8,43.5,30.19,NW,310,0.0,0.0,85,13.96,,,99.99,meteohub,2013-03-11 21:32:00,
2013-03-11 17:37:00,47.8,43.5,30.19,NW,310,0.0,0.0,85,13.48,,,99.99,meteohub,2013-03-11 21:37:00,
2013-03-11 17:43:00,47.7,43.3,30.19,NW,310,0.0,0.0,85,13.84,,,99.99,meteohub,2013-03-11 21:43:00,
2013-03-11 17:48:00,47.7,43.3,30.19,NW,310,0.0,0.0,85,13.36,,,99.99,meteohub,2013-03-11 21:48:00,
2013-03-11 17:53:00,47.5,43.5,30.19,NW,310,0.0,0.0,86,13.48,,,99.99,meteohub,2013-03-11 21:53:00,
2013-03-11 17:58:00,47.3,43.3,30.19,NW,310,0.0,0.0,86,13.84,,,99.99,meteohub,2013-03-11 21:58:00,
2013-03-11 18:03:00,47.1,43.2,30.19,NW,310,0.0,0.0,86,13.36,,,99.99,meteohub,2013-03-11 22:03:00,
2013-03-11 18:08:00,47.1,43.2,30.19,NW,310,0.0,0.0,86,13.68,,,99.99,meteohub,2013-03-11 22:08:00,
2013-03-11 18:13:00,46.9,43.0,30.19,NW,310,0.0,0.0,86,14.04,,,99.99,meteohub,2013-03-11 22:13:00,
2013-03-11 18:18:00,46.8,43.2,30.18,NW,310,0.0,0.0,87,13.56,,,99.99,meteohub,2013-03-11 22:18:00,
2013-03-11 18:23:00,46.8,43.2,30.19,NW,310,0.0,0.0,87,13.80,,,99.99,meteohub,2013-03-11 22:23:00,
2013-03-11 18:28:00,46.6,43.0,30.19,NW,310,0.0,0.0,87,13.32,,,99.99,meteohub,2013-03-11 22:28:00,
2013-03-11 18:33:00,46.4,43.0,30.19,NW,310,0.0,0.0,88,13.56,,,99.99,meteohub,2013-03-11 22:33:00,
2013-03-11 18:39:00,46.2,42.8,30.19,NW,310,0.0,0.0,88,13.92,,,99.99,meteohub,2013-03-11 22:39:00,
2013-03-11 18:44:00,46.2,42.8,30.19,NW,310,0.0,0.0,88,13.44,,,99.99,meteohub,2013-03-11 22:44:00,
2013-03-11 18:49:00,46.0,42.6,30.19,NW,310,0.0,0.0,88,13.68,,,99.99,meteohub,2013-03-11 22:49:00,
2013-03-11 18:54:00,45.9,42.4,30.18,NW,310,0.0,0.0,88,13.92,,,99.99,meteohub,2013-03-11 22:54:00,
2013-03-11 18:59:00,45.7,42.6,30.18,NW,310,0.0,0.0,89,13.44,,,99.99,meteohub,2013-03-11 22:59:00,
2013-03-11 19:04:00,45.5,42.4,30.18,NW,310,0.0,0.0,89,13.80,,,99.99,meteohub,2013-03-11 23:04:00,
2013-03-11 19:09:00,45.3,42.3,30.18,NW,310,0.0,0.0,89,13.32,,,99.99,meteohub,2013-03-11 23:09:00,
2013-03-11 19:14:00,45.3,42.3,30.18,NW,310,0.0,0.0,89,13.56,,,99.99,meteohub,2013-03-11 23:14:00,
2013-03-11 19:20:00,45.1,42.1,30.18,NW,310,0.0,0.0,89,13.92,,,99.99,meteohub,2013-03-11 23:20:00,
2013-03-11 19:25:00,45.0,42.3,30.17,NW,310,0.0,0.0,90,13.32,,,99.99,meteohub,2013-03-11 23:25:00,
2013-03-11 19:30:00,45.0,42.3,30.18,NW,310,0.0,0.0,90,13.72,,,99.99,meteohub,2013-03-11 23:30:00,
2013-03-11 19:35:00,45.0,42.3,30.18,NW,310,0.0,0.0,90,13.24,,,99.99,meteohub,2013-03-11 23:35:00,
2013-03-11 19:40:00,44.8,42.1,30.18,NW,310,0.0,0.0,90,13.60,,,99.99,meteohub,2013-03-11 23:40:00,
2013-03-11 19:45:00,45.0,42.4,30.18,NW,310,0.0,0.0,91,13.40,,,99.99,meteohub,2013-03-11 23:45:00,
2013-03-11 19:50:00,45.0,42.4,30.17,NW,310,0.0,0.0,91,13.52,,,99.99,meteohub,2013-03-11 23:50:00,
2013-03-11 19:55:00,45.0,42.4,30.17,NW,310,0.0,0.0,91,14.00,,,99.99,meteohub,2013-03-11 23:55:00,
2013-03-11 20:00:00,45.1,42.6,30.17,NW,310,0.0,0.0,91,13.52,,,99.99,meteohub,2013-03-12 00:00:00,
2013-03-11 20:05:00,45.1,42.6,30.18,NW,310,0.0,0.0,91,13.76,,,1.08,meteohub,2013-03-12 00:05:00,
2013-03-11 20:10:00,45.3,42.8,30.18,NW,310,0.0,0.0,91,13.32,,,1.84,meteohub,2013-03-12 00:10:00,
2013-03-11 20:15:00,45.3,42.8,30.18,NW,310,0.0,0.0,91,13.68,,,3.28,meteohub,2013-03-12 00:15:00,
2013-03-11 20:20:00,45.3,42.8,30.18,NW,310,0.0,0.0,91,13.92,,,4.72,meteohub,2013-03-12 00:20:00,
2013-03-11 20:25:00,45.7,43.2,30.18,NW,310,0.0,0.0,91,13.40,,,5.44,meteohub,2013-03-12 00:25:00,
2013-03-11 20:31:00,45.7,43.0,30.18,NW,310,0.0,0.0,90,13.76,,,6.88,meteohub,2013-03-12 00:31:00,
2013-03-11 20:36:00,45.7,43.0,30.18,NW,310,0.0,0.0,90,13.84,,,7.60,meteohub,2013-03-12 00:36:00,
2013-03-11 20:41:00,45.7,43.2,30.18,NW,310,0.0,0.0,91,13.60,,,9.04,meteohub,2013-03-12 00:41:00,
2013-03-11 20:46:00,45.7,43.0,30.18,NW,310,0.0,0.0,90,13.84,,,10.48,meteohub,2013-03-12 00:46:00,
2013-03-11 20:51:00,45.5,43.0,30.18,NW,310,0.0,0.0,91,13.36,,,11.20,meteohub,2013-03-12 00:51:00,
2013-03-11 20:56:00,45.5,43.0,30.18,NW,310,0.0,0.0,91,13.60,,,12.64,meteohub,2013-03-12 00:56:00,
2013-03-11 21:01:00,45.3,42.8,30.18,NW,310,0.0,0.0,91,13.72,,,13.96,meteohub,2013-03-12 01:01:00,
2013-03-11 21:02:00,45.3,42.8,30.18,NW,310,0.0,0.0,91,13.72,,,13.96,meteohub,2013-03-12 01:02:00,
2013-03-11 21:12:00,45.1,42.6,30.18,NW,310,0.0,0.0,91,13.68,,,16.24,meteohub,2013-03-12 01:12:00,
2013-03-11 21:17:00,45.1,42.6,30.17,NW,310,0.0,0.0,91,13.20,,,16.84,meteohub,2013-03-12 01:17:00,
2013-03-11 21:22:00,45.0,42.4,30.18,NW,310,0.0,0.0,91,13.60,,,18.44,meteohub,2013-03-12 01:22:00,
2013-03-11 21:27:00,44.8,42.3,30.17,NW,310,0.0,0.0,91,13.84,,,19.88,meteohub,2013-03-12 01:27:00,
2013-03-11 21:32:00,44.8,42.6,30.17,NW,310,0.0,0.0,92,13.36,,,20.60,meteohub,2013-03-12 01:32:00,
2013-03-11 21:37:00,44.6,42.4,30.17,NW,310,0.0,0.0,92,13.72,,,22.04,meteohub,2013-03-12 01:37:00,
2013-03-11 21:42:00,44.2,42.1,30.17,NW,310,0.0,0.0,92,13.84,,,23.36,meteohub,2013-03-12 01:42:00,
2013-03-11 21:47:00,44.1,41.9,30.17,NW,310,0.0,0.0,92,13.48,,,24.20,meteohub,2013-03-12 01:47:00,
2013-03-11 21:52:00,43.9,41.7,30.17,NW,310,0.0,0.0,92,13.72,,,25.64,meteohub,2013-03-12 01:52:00,
2013-03-11 21:57:00,43.7,41.7,30.17,NW,310,0.0,0.0,93,13.24,,,26.36,meteohub,2013-03-12 01:57:00,
2013-03-11 22:02:00,43.3,41.5,30.17,NW,310,0.0,0.0,93,13.60,,,27.80,meteohub,2013-03-12 02:02:00,
2013-03-11 22:07:00,43.2,41.4,30.17,NW,310,0.0,0.0,93,13.84,,,29.24,meteohub,2013-03-12 02:07:00,
2013-03-11 22:12:00,43.2,41.4,30.17,NW,310,0.0,0.0,93,13.28,,,29.88,meteohub,2013-03-12 02:12:00,
2013-03-11 22:18:00,42.8,41.2,30.17,NW,310,0.0,0.0,94,13.72,,,31.44,meteohub,2013-03-12 02:18:00,
2013-03-11 22:23:00,42.6,41.0,30.17,NW,310,0.0,0.0,94,13.96,,,32.88,meteohub,2013-03-12 02:23:00,
2013-03-11 22:28:00,42.4,40.8,30.17,NW,310,0.0,0.0,94,13.48,,,33.60,meteohub,2013-03-12 02:28:00,
2013-03-11 22:33:00,42.4,40.8,30.17,NW,310,0.0,0.0,94,13.72,,,34.92,meteohub,2013-03-12 02:33:00,
2013-03-11 22:38:00,42.3,41.0,30.17,NW,310,0.0,0.0,95,13.24,,,35.64,meteohub,2013-03-12 02:38:00,
2013-03-11 22:43:00,42.3,41.0,30.17,NW,310,0.0,0.0,95,13.60,,,37.20,meteohub,2013-03-12 02:43:00,
2013-03-11 22:48:00,42.1,40.8,30.17,NW,310,0.0,0.0,95,13.84,,,38.64,meteohub,2013-03-12 02:48:00,
2013-03-11 22:53:00,42.1,40.8,30.17,NW,310,0.0,0.0,95,13.36,,,39.24,meteohub,2013-03-12 02:53:00,
2013-03-11 22:58:00,42.1,40.8,30.17,NW,310,0.0,0.0,95,13.60,,,40.68,meteohub,2013-03-12 02:58:00,
2013-03-11 23:03:00,41.9,40.8,30.17,NW,310,0.0,0.0,96,13.96,,,42.24,meteohub,2013-03-12 03:03:00,
2013-03-11 23:08:00,42.1,41.0,30.16,NW,310,0.0,0.0,96,13.36,,,42.84,meteohub,2013-03-12 03:08:00,
2013-03-11 23:13:00,42.1,41.0,30.16,NW,310,0.0,0.0,96,13.56,,,44.16,meteohub,2013-03-12 03:13:00,
2013-03-11 23:18:00,41.9,40.8,30.16,NW,310,0.0,0.0,96,13.08,,,44.88,meteohub,2013-03-12 03:18:00,
2013-03-11 23:23:00,41.7,40.6,30.15,NW,310,0.0,0.0,96,13.20,,,46.20,meteohub,2013-03-12 03:23:00,
2013-03-11 23:28:00,41.7,40.6,30.14,North,-999,-999.0,0.0,96,12.40,,,46.48,meteohub,2013-03-12 03:28:00,
2013-03-11 23:33:00,41.7,40.6,30.14,NW,310,0.0,0.0,96,11.92,,,47.20,meteohub,2013-03-12 03:33:00,
2013-03-11 23:39:00,41.7,40.6,30.14,NW,310,0.0,0.0,96,12.16,,,48.64,meteohub,2013-03-12 03:39:00,
2013-03-11 23:44:00,41.5,40.5,30.14,NW,310,0.0,0.0,96,12.52,,,50.20,meteohub,2013-03-12 03:44:00,
2013-03-11 23:49:00,41.5,40.5,30.14,NW,310,0.0,0.0,96,12.08,,,50.84,meteohub,2013-03-12 03:49:00,
2013-03-11 23:54:00,41.7,41.0,30.14,NW,310,0.0,0.0,97,12.48,,,52.44,meteohub,2013-03-12 03:54:00,
2013-03-11 23:59:00,41.7,41.0,30.14,NW,310,0.0,0.0,97,11.88,,,53.04,meteohub,2013-03-12 03:59:00,